Погода в Саре

Россия / Ульяновская область     54°38′29″N   46°45′21″E
темп.,
°C
ветер,
м/с
пор.,
м/с
влажн.,
%
обл.,
%
осадки,
мм/ч
давл.,
гПа
погр.,
м
15 мая, сб
сб1501:00+18юв2482100 0.0 101785
04:00+17юв3982100 0.0 1016147
07:00+19ююв4156543 0.0 1016364
10:00+24ю5144548 0.0 1016754
13:00+28ю6123597 0.0 10171437
16:00+28ю5113996 0.0 10161516
19:00+24ю411531 0.0 1016451
22:00+18ююв37675 0.0 1016123
16 мая, вс
вс1601:00+16ююв310685 0.0 1016166
04:00+15ююв246637 0.0 101661
07:00+17ююв26675 0.0 1016168
10:00+23ююз47505 0.0 1016505
13:00+26ююз5841100 0.0 10161040
16:00+27юз4942100 0.0 10161674
19:00+24ююз375974 0.0 1015247
22:00+18ююз22705 0.0 101622
17 мая, пн
пн1701:00+16ю127567 0.0 101711
04:00+15ююв117863 0.0 101711
07:00+18ююв11705 0.0 101868
10:00+24ю234967 0.0 1018490
13:00+28ююз25408 0.0 10181022
16:00+30юз362846 0.0 10173268
19:00+24ю365199 0.0 1017128
22:00+19юв2260100 0.0 101711
18 мая, вт
вт1801:00+18юв2255100 0.0 101712
04:00+16ююв225442 0.0 101719
07:00+18юв2359100 0.0 101765
10:00+25ююв3739100 0.0 1017459
13:00+28ююв4631100 0.0 10161035
16:00+29ююв463370 0.0 10151174
19:00+25юв38505 0.0 1015200
22:00+19вюв22585 0.0 101523
19 мая, ср
ср1901:00+18вюв22555 0.0 101425
04:00+17вюв225512 0.0 101437
07:00+19юв3125822 0.0 1014274
10:00+26юв5123865 0.0 1013843
13:00+30юв710285 0.0 10122991
16:00+30юв610335 0.0 10112887
19:00+26юв613415 0.0 1008809
22:00+24юв41339100 0.0 1008568